Weather History for KEWR - April, 2013

Change the Weather History Date:

Monday, April 29, 2013

  Actual Average Record
Temperature  
Mean Temperature 55 °F 58 °F  
Max Temperature 57 °F 67 °F 91 °F (1974)
Min Temperature 53 °F 48 °F 35 °F (1947)
Degree Days  
Heating Degree Days 10 8  
Month to date heating degree days 344 368  
Since 1 July heating degree days 4483 4712  
Cooling Degree Days 0 1  
Month to date cooling degree days 3 8  
Year to date cooling degree days 3 9  
Growing Degree Days 5 (Base 50)    
Moisture  
Dew Point 47 °F    
Average Humidity 73    
Maximum Humidity 89    
Minimum Humidity 57    
Precipitation  
Precipitation 0.13 in 0.14 in 0.82 in (1958)
Month to date precipitation 1.47 4.08  
Year to date precipitation 10.81 14.68  
Snow  
Snow 0.00 in 0.00 in 0.00 in (2002)
Month to date snowfall 0.0 0.9  
Since 1 July snowfall 29.5 28.5  
Snow Depth 0.00 in    
Sea Level Pressure  
Sea Level Pressure 30.22 in    
Wind  
Wind Speed 6 mph (SE)    
Max Wind Speed 13 mph    
Max Gust Speed 18 mph    
Visibility 10 miles    
Events Rain    
T = Trace of Precipitation, MM = Missing Value Source: NWS Daily Summary

Daily Weather History Graph

Daily Weather History Graph

Search for Another Location

Airport or City:

Trip Planner

Search our weather history database for the weather conditions in past years. The results will help you decide how hot, cold, wet, or windy it might be!

Date:

Astronomy

Apr. 29, 2013 Rise Set
Actual Time 5:57 AM EDT 7:50 PM EDT
Civil Twilight 5:28 AM EDT 8:20 PM EDT
Nautical Twilight 4:52 AM EDT 8:56 PM EDT
Astronomical Twilight 4:13 AM EDT 9:35 PM EDT
Moon No Moon Rise 9:15 AM EDT (4/29)
Length of Visible Light 14h 52m
Length of Day
13h 53m
Waning Gibbous, 80% of the Moon is Illuminated
Apr 29
Waning Gibbous
May 2
Last Quarter
May 9
New
May 18
First Quarter
May 25
Full

Hourly Weather History & Observations

Time (EDT) Temp. Dew Point Humidity Pressure Visibility Wind Dir Wind Speed Gust Speed Precip Events Conditions
12:51 AM 57.0 °F 42.1 °F 57% 30.24 in 10.0 mi Calm Calm - N/A   Overcast
1:51 AM 57.0 °F 43.0 °F 59% 30.23 in 10.0 mi SSE 4.6 mph - N/A   Overcast
2:51 AM 55.9 °F 45.0 °F 67% 30.21 in 10.0 mi Calm Calm - 0.00 in Rain Light Rain
3:51 AM 55.9 °F 46.9 °F 72% 30.20 in 10.0 mi SSE 4.6 mph - 0.00 in Rain Light Rain
4:51 AM 55.0 °F 48.9 °F 80% 30.21 in 10.0 mi SSE 3.5 mph - 0.00 in Rain Light Rain
5:51 AM 54.0 °F 48.0 °F 80% 30.21 in 10.0 mi SSE 4.6 mph - 0.02 in Rain Light Rain
6:51 AM 54.0 °F 46.9 °F 77% 30.22 in 10.0 mi Variable 3.5 mph - 0.01 in   Overcast
7:51 AM 54.0 °F 48.0 °F 80% 30.24 in 10.0 mi SSE 8.1 mph - 0.00 in Rain Light Rain
8:51 AM 54.0 °F 48.0 °F 80% 30.24 in 9.0 mi SSE 6.9 mph - 0.00 in Rain Light Rain
9:51 AM 55.0 °F 46.9 °F 74% 30.23 in 10.0 mi SSE 6.9 mph - 0.01 in Rain Light Rain
10:51 AM 54.0 °F 46.9 °F 77% 30.23 in 9.0 mi SE 8.1 mph - 0.00 in Rain Light Rain
11:51 AM 54.0 °F 48.0 °F 80% 30.22 in 9.0 mi ESE 6.9 mph - 0.03 in Rain Light Rain
12:51 PM 54.0 °F 50.0 °F 86% 30.22 in 9.0 mi SSE 6.9 mph - 0.03 in Rain Light Rain
1:51 PM 54.0 °F 48.9 °F 83% 30.22 in 9.0 mi SE 8.1 mph - 0.02 in Rain Light Rain
2:51 PM 54.0 °F 50.0 °F 86% 30.21 in 9.0 mi ESE 8.1 mph - 0.01 in Rain Light Rain
3:51 PM 55.0 °F 48.9 °F 80% 30.19 in 9.0 mi East 6.9 mph - 0.00 in   Overcast
4:51 PM 55.9 °F 46.9 °F 72% 30.19 in 10.0 mi ESE 6.9 mph - N/A   Overcast
5:51 PM 55.9 °F 46.9 °F 72% 30.19 in 10.0 mi East 4.6 mph - N/A   Overcast
6:51 PM 55.9 °F 46.0 °F 69% 30.19 in 10.0 mi SE 4.6 mph - N/A   Overcast
7:51 PM 55.0 °F 46.0 °F 72% 30.20 in 10.0 mi ESE 6.9 mph - N/A   Overcast
8:51 PM 55.0 °F 46.0 °F 72% 30.22 in 10.0 mi ESE 6.9 mph - N/A   Overcast
9:51 PM 53.1 °F 50.0 °F 89% 30.23 in 10.0 mi ESE 8.1 mph - N/A   Overcast
10:47 PM 53.6 °F 48.2 °F 82% 30.22 in 10.0 mi SE 8.1 mph - 0.00 in Rain Light Rain
10:51 PM 54.0 °F 48.0 °F 80% 30.22 in 10.0 mi Variable 4.6 mph - 0.00 in Rain Light Rain
11:09 PM 53.6 °F 48.2 °F 82% 30.22 in 10.0 mi SE 8.1 mph - 0.00 in Rain Light Rain
11:51 PM 53.1 °F 48.0 °F 83% 30.22 in 10.0 mi SE 9.2 mph - 0.00 in   Overcast